Tracking 18942 objects as of 18-Jan-2018
HD Live streaming from Space Station
objects crossing your sky now

FLOCK 2K 08

Track FLOCK 2K 08 now!
10-day predictions
FLOCK 2K 08 is classified as:


NORAD ID: 42863
Int'l Code: 2017-042AQ
Perigee: 460.4 km
Apogee: 473.5 km
Inclination: 97.0 °
Period: 93.8 minutes
Semi major axis: 6837 km
RCS: Unknown
Launch date: July 14, 2017
Source: United States (US)
Launch site: TYURATAM MISSILE AND SPACE COMPLEX (TTMTR)
aabbcc
Your satellite tracking list
Your tracking list is empty




NASA's NSSDC Master Catalog

Two Line Element Set (TLE):
1 42863U 17042AQ  18017.68958018  .00002044  00000-0  61595-4 0  9999
2 42863  96.9941 281.8825 0009593 305.6175  54.4176 15.35372739 28530
Source of the keplerian elements: AFSPC